Location: Sawmill Trailhead
(33.5800°N, 116.4497°W)
Time: 17:09:59
(UTC-08:00)

N. Korean satellite - Visible Passes

Search period start: 18 February 2019 00:00
Search period end: 28 February 2019 00:00
Orbit: 457 x 510 km, 97.2° (Epoch: 18 February)

Date Brightness Start Highest point End Pass type
(mag) Time Alt. Az. Time Alt. Az. Time Alt. Az.
18 Feb 9.0 05:21:22 10° NE 05:24:19 26° E 05:27:13 10° SSE visible
19 Feb 10.2 04:58:05 10° ENE 04:59:26 12° E 05:00:47 10° ESE visible
20 Feb 10.1 18:10:57 10° SW 18:13:15 16° W 18:15:33 10° NW visible
21 Feb 7.5 05:40:10 10° NNE 05:43:32 51° E 05:46:52 10° S visible
22 Feb 9.3 05:16:00 10° NE 05:18:43 22° E 05:21:26 10° SSE visible
24 Feb 10.0 18:05:06 10° SW 18:07:41 18° W 18:10:15 10° NW visible
25 Feb 7.9 05:34:39 10° NNE 05:37:56 42° E 05:41:12 10° S visible
26 Feb 9.6 05:10:37 10° NE 05:13:06 19° E 05:15:35 10° SE visible
